Powrót do katalogu

STARLINK-4641

AktywnyŁącznośćVLEO
NORAD 53730·PAYLOAD·🇺🇸 United States

Wystrzelony Sep 5, 2022 z Cape Canaveral Space Force Station

Loading…

Następne Przeloty (najbliższe 24 godziny)

TLE

ŚwieżeSource: CelesTrak SupGP

Epoka: Sep 14, 2026, 20:40 UTC

1 53730C 22107AG  26257.86159722 -.00021417  00000+0 -63298-3 0  2576
2 53730  53.1584 109.9391 0001312  88.0566  11.5677 15.34390544    14

Śledź STARLINK-4641 w czasie rzeczywistym z AllMySat

Download on the App Store